+ View the NASA Portal
+ Center for Near-Earth Object Studies
IMPORTANT:
The SSD Announcement email list is now available. Major changes are coming in the near future, including possible hostname and/or URL changes. To be notified of such changes, subscribe to this email list.
Please visit
this page
for more details.
Don't show this message again
JPL Small-Body Database Browser
Search:
[
help
]
452536 (2004 TM211)
Classification:
Main-belt Asteroid
SPK-ID:
2452536
[
Ephemeris
|
Orbit Diagram
|
Orbital Elements
|
Mission Design
|
Physical Parameters
|
Discovery Circumstances
]
[ show orbit diagram ]
Orbital Elements at Epoch 2458600.5 (2019-Apr-27.0) TDB
Reference:
JPL 9
(heliocentric ecliptic J2000)
Element
Value
Uncertainty (1-sigma)
Units
e
.2107802008068307
1.0308e-07
a
2.345269057766923
1.6394e-08
au
q
1.850932774824764
2.5027e-07
au
i
1.561932374244525
7.194e-06
deg
node
290.482643926937
0.0002639
deg
peri
47.48198403533358
0.00026618
deg
M
50.74082405660108
2.658e-05
deg
t
p
2458415.597640631101
(2018-Oct-24.09764063)
9.5566e-05
TDB
period
1311.859840875876
3.59
1.3756e-05
3.766e-08
d
yr
n
.274419559760014
2.8774e-09
deg/d
Q
2.839605340709082
1.985e-08
au
Orbit Determination Parameters
# obs. used (total)
97
data-arc span
9103 days (24.92 yr)
first obs. used
1993-09-10
last obs. used
2018-08-13
planetary ephem.
DE431
SB-pert. ephem.
SB431-N16
condition code
0
norm. resid. RMS
.45311
source
ORB
producer
Otto Matic
solution date
2019-Jul-14 05:22:49
Additional Information
Earth MOID
= .841282 au
Jupiter MOID
= 2.54623 au
T_jup
= 3.531
[ show covariance matrix ]
[
Ephemeris
|
Orbit Diagram
|
Orbital Elements
|
Mission Design
|
Physical Parameters
|
Discovery Circumstances
]
Physical Parameter Table
Parameter
Symbol
Value
Units
Sigma
Reference
Notes
absolute magnitude
H
18.6
n/a
MPO456155
452536 (2004 TM211)
Discovered 2004-Oct-08 by Spacewatch at Kitt Peak
Reference:
Last Updated:
2016-01-04
Alternate Designations
2004 TM211
= 1993 RE1
[
Ephemeris
|
Orbit Diagram
|
Orbital Elements
|
Mission Design
|
Physical Parameters
|
Discovery Circumstances
]
2019-Dec-07 14:37 UT
(server date/time)
Site Manager:
Ryan S. Park
Webmaster
:
Alan B. Chamberlin